Regional Weather Roundup
Issued by NWS Albany, NY

Home | Current Version | Previous Version | Graphics & Text | Print | Product List | Glossary On
Versions: 1 2 3 4 5 6 7 8 9 10 11 12 13 14 15 16 17 18 19 20 21 22 23 24 25 26 27 28 29 30 31 32 33 34 35 36 37 38 39 40 41 42 43 44 45 46 47 48 49 50
000
ASUS41 KALY 262310
RWRALY

NEW YORK STATE HOURLY WEATHER ROUNDUP
NATIONAL WEATHER SERVICE ALBANY NY
700 PM EDT WED JUL 26 2017

NOTE: "FAIR" INDICATES FEW OR NO CLOUDS BELOW 12,000 FEET WITH NO
SIGNIFICANT WEATHER AND/OR NO OBSTRUCTIONS TO VISIBILITY.

NYZ032-033-038>043-046>054-057>066-NYZ062>081-082-084-270000-
EAST


CITY           SKY/WX    TMP DP  RH WIND       PRES   REMARKS
ALBANY         CLOUDY    75  58  55 S7        30.10S
GLENS FALLS    CLOUDY    72  61  68 SW3       30.09F
POUGHKEEPSIE   SUNNY     74  59  59 S5        30.12F
MONTGOMERY     CLOUDY    74  62  66 S5        30.13S
WHITE PLAINS   MOSUNNY   71  58  63 S8        30.15F
ISLIP          PTSUNNY   71  56  58 S9        30.16S
NEW YORK CITY  PTSUNNY   73  55  53 S12       30.14F
CENTRAL PARK   SUNNY     71  54  54 VRB3      30.17F
$$

NYZ005>009-017-018-044>046-055-056-270000-
CENTRAL


CITY           SKY/WX    TMP DP  RH WIND       PRES   REMARKS
FULTON         CLOUDY    72  63  73 CALM      30.07F
SYRACUSE       CLOUDY    73  60  63 S5        30.07F
ROME           CLOUDY    72  63  73 SE5       30.09S
ELMIRA         MOSUNNY   74  61  63 S7        30.08S
BINGHAMTON     MOSUNNY   68  60  75 S5        30.12F
$$

NYZ026>034-041>043-087-270000-
NORTH


CITY           SKY/WX    TMP DP  RH WIND       PRES   REMARKS
WATERTOWN      CLOUDY    70  64  81 CALM      30.06F
FORT DRUM      NOT AVBL
OGDENSBURG     FAIR      69  62  79 CALM      30.07F
MASSENA        CLOUDY    70  62  76 SW7       30.08R
SARANAC LAKE   CLOUDY    65  57  75 SW7       30.11S
PLATTSBURGH    CLOUDY    73  59  61 S3        30.05F
$$

NYZ001>004-010>016-019>021-085-270000-
WEST


CITY           SKY/WX    TMP DP  RH WIND       PRES   REMARKS
NIAGARA FALLS  CLOUDY    75  58  55 W9        30.08R
BUFFALO        CLOUDY    73  60  63 W8        30.08R
DUNKIRK        CLOUDY    71  63  75 W3        30.10R
JAMESTOWN      MOSUNNY   72  61  68 W5        30.13R
WELLSVILLE     PTSUNNY   72  59  63 S3        30.15R
ROCHESTER      CLOUDY    76  62  62 S3        30.06S
PENN YAN       PTSUNNY   73  60  63 S5        30.09S
$$

             KEY
       WCI = WIND CHILL INDEX
       VSB = VISIBILITY
       HX  = HEAT INDEX
$$



USA.gov is the U.S. government's official web portal to all federal, state and local government web resources and services.